| time (UTC) | temp F | wind direction | speed knots | gust knots | rain 1hr in | rain 24hr in | rain mn in | humidity % | barometer mb |
| 20260506024552 | 54 | 298 | 7.8 | 12.2 | 0.00 | 0.00 | 0.00 | 65 | 1016.6 |
| 20260506024030 | 54 | 309 | 7.0 | 12.2 | 0.00 | 0.00 | 0.00 | 64 | 1016.6 |
| 20260506023530 | 55 | 275 | 8.7 | 13.9 | 0.00 | 0.00 | 0.00 | 63 | 1016.5 |
| 20260506023041 | 55 | 281 | 10.4 | 13.9 | 0.00 | 0.00 | 0.00 | 62 | 1016.5 |
| 20260506022529 | 55 | 280 | 7.0 | 13.0 | 0.00 | 0.00 | 0.00 | 62 | 1016.4 |
| 20260506022029 | 56 | 304 | 7.0 | 14.8 | 0.00 | 0.00 | 0.00 | 61 | 1016.4 |
| 20260506021541 | 56 | 284 | 8.7 | 14.8 | 0.00 | 0.00 | 0.00 | 59 | 1016.5 |
| 20260506021030 | 56 | 294 | 9.6 | 13.9 | 0.00 | 0.00 | 0.00 | 58 | 1016.4 |
| 20260506020534 | 57 | 286 | 8.7 | 14.8 | 0.00 | 0.00 | 0.00 | 58 | 1016.3 |
| 20260506020038 | 57 | 284 | 10.4 | 14.8 | 0.00 | 0.00 | 0.00 | 57 | 1016.3 |
| 20260506015531 | 57 | 276 | 8.7 | 14.8 | 0.00 | 0.00 | 0.00 | 56 | 1016.3 |
| 20260506015029 | 58 | 265 | 8.7 | 13.0 | 0.00 | 0.00 | 0.00 | 56 | 1016.3 |
| 20260506014555 | 58 | 269 | 7.0 | 13.0 | 0.00 | 0.00 | 0.00 | 56 | 1016.2 |
| 20260506014030 | 57 | 265 | 8.7 | 14.8 | 0.00 | 0.00 | 0.00 | 56 | 1016.0 |
| 20260506013530 | 57 | 301 | 10.4 | 14.8 | 0.00 | 0.00 | 0.00 | 56 | 1016.0 |
| 20260506013048 | 58 | 300 | 9.6 | 14.8 | 0.00 | 0.00 | 0.00 | 55 | 1015.9 |
| 20260506012529 | 58 | 274 | 10.4 | 13.9 | 0.00 | 0.00 | 0.00 | 55 | 1015.8 |
| 20260506012030 | 58 | 266 | 9.6 | 13.9 | 0.00 | 0.00 | 0.00 | 55 | 1015.8 |
| 20260506011542 | 58 | 273 | 7.8 | 14.8 | 0.00 | 0.00 | 0.00 | 57 | 1015.8 |
| 20260506011033 | 59 | 265 | 8.7 | 15.6 | 0.00 | 0.00 | 0.00 | 56 | 1015.9 |
| 20260506010531 | 59 | 289 | 10.4 | 15.6 | 0.00 | 0.00 | 0.00 | 55 | 1016.0 |
| 20260506010051 | 59 | 271 | 8.7 | 13.9 | 0.00 | 0.00 | 0.00 | 56 | 1016.0 |
| 20260506005531 | 60 | 296 | 8.7 | 14.8 | 0.00 | 0.00 | 0.00 | 56 | 1015.9 |
| 20260506005029 | 60 | 267 | 9.6 | 14.8 | 0.00 | 0.00 | 0.00 | 58 | 1015.9 |
| 20260506004548 | 60 | 281 | 7.0 | 13.0 | 0.00 | 0.00 | 0.00 | 57 | 1015.9 |
| 20260506004029 | 60 | 298 | 8.7 | 13.0 | 0.00 | 0.00 | 0.00 | 56 | 1015.9 |
| 20260506003529 | 60 | 302 | 7.0 | 13.0 | 0.00 | 0.00 | 0.00 | 56 | 1015.8 |
| 20260506003042 | 60 | 286 | 8.7 | 13.9 | 0.00 | 0.00 | 0.00 | 54 | 1015.9 |
| 20260506002530 | 61 | 272 | 10.4 | 13.9 | 0.00 | 0.00 | 0.00 | 54 | 1015.9 |
| 20260506002029 | 61 | 286 | 7.8 | 14.8 | 0.00 | 0.00 | 0.00 | 56 | 1015.9 |
| 20260506001537 | 61 | 273 | 9.6 | 14.8 | 0.00 | 0.00 | 0.00 | 54 | 1015.9 |
| 20260506001031 | 61 | 254 | 9.6 | 14.8 | 0.00 | 0.00 | 0.00 | 58 | 1015.9 |
| 20260506000531 | 61 | 286 | 10.4 | 14.8 | 0.00 | 0.00 | 0.00 | 57 | 1015.8 |
| 20260506000043 | 61 | 285 | 9.6 | 15.6 | 0.00 | 0.00 | 0.00 | 57 | 1015.8 |
| 20260505235529 | 61 | 308 | 10.4 | 20.0 | 0.00 | 0.00 | 0.00 | 58 | 1015.9 |
| 20260505235030 | 61 | 309 | 10.4 | 20.0 | 0.00 | 0.00 | 0.00 | 56 | 1015.8 |
| 20260505234542 | 62 | 279 | 13.0 | 20.0 | 0.00 | 0.00 | 0.00 | 56 | 1015.7 |
| 20260505234030 | 62 | 241 | 10.4 | 14.8 | 0.00 | 0.00 | 0.00 | 57 | 1015.7 |
| 20260505233530 | 61 | 248 | 9.6 | 15.6 | 0.00 | 0.00 | 0.00 | 59 | 1015.6 |
| 20260505233043 | 61 | 283 | 8.7 | 15.6 | 0.00 | 0.00 | 0.00 | 58 | 1015.7 |
| 20260505232530 | 61 | 279 | 10.4 | 15.6 | 0.00 | 0.00 | 0.00 | 58 | 1015.6 |
| 20260505232030 | 62 | 280 | 10.4 | 13.9 | 0.00 | 0.00 | 0.00 | 57 | 1015.7 |
| 20260505231542 | 62 | 285 | 7.8 | 12.2 | 0.00 | 0.00 | 0.00 | 58 | 1015.6 |
| 20260505231029 | 62 | 254 | 7.8 | 10.4 | 0.00 | 0.00 | 0.00 | 59 | 1015.7 |
| 20260505230529 | 62 | 241 | 5.2 | 11.3 | 0.00 | 0.00 | 0.00 | 59 | 1015.5 |
| 20260505230046 | 61 | 279 | 7.0 | 12.2 | 0.00 | 0.00 | 0.00 | 58 | 1015.5 |
| 20260505225530 | 62 | 288 | 9.6 | 13.9 | 0.00 | 0.00 | 0.00 | 58 | 1015.4 |
| 20260505225033 | 62 | 274 | 9.6 | 14.8 | 0.00 | 0.00 | 0.00 | 57 | 1015.5 |
| 20260505224546 | 63 | 273 | 10.4 | 14.8 | 0.00 | 0.00 | 0.00 | 55 | 1015.5 |
| 20260505224030 | 63 | 273 | 7.8 | 12.2 | 0.00 | 0.00 | 0.00 | 52 | 1015.5 |
| 20260505223529 | 63 | 277 | 6.1 | 11.3 | 0.00 | 0.00 | 0.00 | 53 | 1015.4 |
| 20260505223047 | 64 | 302 | 7.0 | 11.3 | 0.00 | 0.00 | 0.00 | 52 | 1015.6 |
| 20260505222529 | 64 | 252 | 7.0 | 11.3 | 0.00 | 0.00 | 0.00 | 55 | 1015.5 |
| 20260505222029 | 63 | 279 | 7.0 | 14.8 | 0.00 | 0.00 | 0.00 | 55 | 1015.5 |
| 20260505221547 | 63 | 277 | 8.7 | 14.8 | 0.00 | 0.00 | 0.00 | 54 | 1015.5 |
| 20260505221029 | 64 | 305 | 7.8 | 12.2 | 0.00 | 0.00 | 0.00 | 52 | 1015.4 |
| 20260505220531 | 64 | 305 | 6.1 | 9.6 | 0.00 | 0.00 | 0.00 | 52 | 1015.3 |
| 20260505220045 | 65 | 261 | 4.3 | 9.6 | 0.00 | 0.00 | 0.00 | 53 | 1015.2 |
| 20260505215530 | 64 | 275 | 7.0 | 9.6 | 0.00 | 0.00 | 0.00 | 55 | 1015.2 |
| 20260505215030 | 63 | 273 | 6.1 | 13.0 | 0.00 | 0.00 | 0.00 | 57 | 1015.1 |
| 20260505214541 | 63 | 249 | 7.0 | 14.8 | 0.00 | 0.00 | 0.00 | 56 | 1015.2 |
| 20260505214028 | 63 | 234 | 8.7 | 14.8 | 0.00 | 0.00 | 0.00 | 55 | 1015.2 |
| 20260505213534 | 63 | 236 | 8.7 | 14.8 | 0.00 | 0.00 | 0.00 | 54 | 1015.2 |
| 20260505213047 | 64 | 251 | 7.0 | 12.2 | 0.00 | 0.00 | 0.00 | 54 | 1015.2 |
| 20260505212533 | 63 | 235 | 6.1 | 12.2 | 0.00 | 0.00 | 0.00 | 55 | 1015.2 |
| 20260505212030 | 63 | 265 | 8.7 | 12.2 | 0.00 | 0.00 | 0.00 | 55 | 1015.0 |
| 20260505211544 | 64 | 280 | 7.8 | 12.2 | 0.00 | 0.00 | 0.00 | 54 | 1014.9 |
| 20260505211030 | 65 | 248 | 7.8 | 13.0 | 0.00 | 0.00 | 0.00 | 55 | 1014.9 |
| 20260505210529 | 64 | 254 | 7.8 | 13.0 | 0.00 | 0.00 | 0.00 | 55 | 1014.8 |
| 20260505210042 | 64 | 278 | 9.6 | 13.0 | 0.00 | 0.00 | 0.00 | 55 | 1014.7 |
| 20260505205534 | 64 | 285 | 8.7 | 12.2 | 0.00 | 0.00 | 0.00 | 56 | 1014.6 |
| 20260505205030 | 64 | 279 | 7.0 | 11.3 | 0.00 | 0.00 | 0.00 | 55 | 1014.4 |
| 20260505204538 | 65 | 262 | 7.0 | 11.3 | 0.00 | 0.00 | 0.00 | 55 | 1014.3 |
| 20260505204032 | 64 | 269 | 6.1 | 9.6 | 0.00 | 0.00 | 0.00 | 54 | 1014.3 |
| 20260505203529 | 64 | 281 | 6.1 | 9.6 | 0.00 | 0.00 | 0.00 | 55 | 1014.4 |
| 20260505203044 | 64 | 297 | 7.0 | 9.6 | 0.00 | 0.00 | 0.00 | 55 | 1014.4 |
| 20260505202529 | 64 | 293 | 5.2 | 8.7 | 0.00 | 0.00 | 0.00 | 55 | 1014.3 |
| 20260505202030 | 64 | 274 | 4.3 | 7.8 | 0.00 | 0.00 | 0.00 | 54 | 1014.2 |
| 20260505201537 | 64 | 285 | 5.2 | 8.7 | 0.00 | 0.00 | 0.00 | 53 | 1014.3 |
| 20260505201029 | 64 | 255 | 5.2 | 8.7 | 0.00 | 0.00 | 0.00 | 55 | 1014.2 |
| 20260505200530 | 64 | 340 | 4.3 | 7.0 | 0.00 | 0.00 | 0.00 | 55 | 1014.2 |
| 20260505200044 | 63 | 264 | 3.5 | 7.0 | 0.00 | 0.00 | 0.00 | 56 | 1014.2 |
| 20260505195533 | 64 | 327 | 2.6 | 7.0 | 0.00 | 0.00 | 0.00 | 56 | 1014.1 |
| 20260505195031 | 64 | 331 | 2.6 | 7.0 | 0.00 | 0.00 | 0.00 | 56 | 1014.2 |
| 20260505194542 | 64 | 332 | 3.5 | 7.0 | 0.00 | 0.00 | 0.00 | 57 | 1014.1 |
| 20260505194030 | 64 | 340 | 4.3 | 7.0 | 0.00 | 0.00 | 0.00 | 57 | 1014.1 |
| 20260505193532 | 63 | 294 | 4.3 | 7.0 | 0.00 | 0.00 | 0.00 | 56 | 1014.2 |
| 20260505193101 | 63 | 308 | 3.5 | 6.1 | 0.00 | 0.00 | 0.00 | 57 | 1014.2 |
| 20260505192529 | 63 | 279 | 3.5 | 6.1 | 0.00 | 0.00 | 0.00 | 57 | 1014.2 |
| 20260505192029 | 63 | 292 | 2.6 | 7.0 | 0.00 | 0.00 | 0.00 | 58 | 1014.2 |
| 20260505191542 | 62 | 311 | 1.7 | 7.0 | 0.00 | 0.00 | 0.00 | 59 | 1014.2 |
| 20260505191031 | 62 | 285 | 4.3 | 6.1 | 0.00 | 0.00 | 0.00 | 58 | 1014.2 |
| 20260505190529 | 62 | 295 | 3.5 | 7.0 | 0.00 | 0.00 | 0.00 | 59 | 1014.2 |
| 20260505190041 | 62 | 281 | 4.3 | 7.0 | 0.00 | 0.00 | 0.00 | 59 | 1014.2 |
| 20260505185529 | 62 | 286 | 3.5 | 7.0 | 0.00 | 0.00 | 0.00 | 60 | 1014.2 |
| 20260505185029 | 61 | 306 | 5.2 | 8.7 | 0.00 | 0.00 | 0.00 | 60 | 1014.1 |
| 20260505184537 | 61 | 313 | 5.2 | 8.7 | 0.00 | 0.00 | 0.00 | 61 | 1014.1 |
| 20260505184030 | 60 | 296 | 5.2 | 8.7 | 0.00 | 0.00 | 0.00 | 63 | 1014.1 |
| 20260505183532 | 60 | 295 | 6.1 | 8.7 | 0.00 | 0.00 | 0.00 | 63 | 1014.1 |
| 20260505183043 | 60 | 314 | 6.1 | 8.7 | 0.00 | 0.00 | 0.00 | 65 | 1014.0 |
| 20260505182529 | 61 | 284 | 6.1 | 8.7 | 0.00 | 0.00 | 0.00 | 63 | 1014.0 |
| 20260505182029 | 62 | 288 | 5.2 | 7.8 | 0.00 | 0.00 | 0.00 | 63 | 1013.9 |
| 20260505181543 | 62 | 283 | 4.3 | 8.7 | 0.00 | 0.00 | 0.00 | 61 | 1013.9 |
| 20260505181030 | 62 | 288 | 6.1 | 8.7 | 0.00 | 0.00 | 0.00 | 60 | 1013.8 |
| 20260505180529 | 63 | 284 | 5.2 | 7.0 | 0.00 | 0.00 | 0.00 | 60 | 1013.8 |
| 20260505180045 | 62 | 144 | 0.9 | 3.5 | 0.00 | 0.00 | 0.00 | 60 | 1013.7 |
| 20260505175529 | 63 | 144 | 0.9 | 3.5 | 0.00 | 0.00 | 0.00 | 60 | 1013.7 |
| 20260505175029 | 61 | 107 | 0.9 | 3.5 | 0.00 | 0.00 | 0.00 | 63 | 1013.8 |
| 20260505174541 | 60 | 41 | 1.7 | 2.6 | 0.00 | 0.00 | 0.00 | 65 | 1013.6 |
| 20260505174030 | 60 | 0 | 0.9 | 3.5 | 0.00 | 0.00 | 0.00 | 65 | 1013.7 |
| 20260505173530 | 60 | 293 | 0.9 | 4.3 | 0.00 | 0.00 | 0.00 | 67 | 1013.6 |
| 20260505173041 | 59 | 293 | 1.7 | 4.3 | 0.00 | 0.00 | 0.00 | 69 | 1013.6 |
| 20260505172529 | 58 | 302 | 2.6 | 6.1 | 0.00 | 0.00 | 0.00 | 70 | 1013.7 |
| 20260505172029 | 58 | 303 | 2.6 | 6.1 | 0.00 | 0.00 | 0.00 | 72 | 1013.7 |
| 20260505171548 | 57 | 286 | 4.3 | 7.0 | 0.00 | 0.00 | 0.00 | 72 | 1013.7 |
| 20260505171029 | 57 | 275 | 2.6 | 7.0 | 0.00 | 0.00 | 0.00 | 71 | 1013.7 |
| 20260505170529 | 58 | 267 | 5.2 | 7.0 | 0.00 | 0.00 | 0.00 | 71 | 1013.6 |
| 20260505170043 | 58 | 309 | 4.3 | 8.7 | 0.00 | 0.00 | 0.00 | 70 | 1013.6 |
| 20260505165530 | 58 | 288 | 6.1 | 8.7 | 0.00 | 0.00 | 0.00 | 71 | 1013.5 |
| 20260505165030 | 58 | 284 | 6.1 | 8.7 | 0.00 | 0.00 | 0.00 | 70 | 1013.5 |
| 20260505164544 | 58 | 300 | 5.2 | 7.0 | 0.00 | 0.00 | 0.00 | 70 | 1013.5 |
| 20260505164031 | 59 | 279 | 3.5 | 7.0 | 0.00 | 0.00 | 0.00 | 69 | 1013.4 |
| 20260505163528 | 60 | 284 | 3.5 | 7.0 | 0.00 | 0.00 | 0.00 | 69 | 1013.4 |
| 20260505163042 | 59 | 220 | 0.9 | 1.7 | 0.00 | 0.00 | 0.00 | 69 | 1013.2 |
| 20260505162529 | 58 | 170 | 0.0 | 1.7 | 0.00 | 0.00 | 0.00 | 70 | 1013.2 |
| 20260505162030 | 58 | 170 | 0.0 | 1.7 | 0.00 | 0.00 | 0.00 | 71 | 1013.2 |
| 20260505161544 | 58 | 170 | 0.0 | 1.7 | 0.00 | 0.00 | 0.00 | 74 | 1013.3 |
| 20260505161029 | 57 | 170 | 0.0 | 1.7 | 0.00 | 0.00 | 0.00 | 73 | 1013.3 |
| 20260505160530 | 57 | 0 | 0.9 | 1.7 | 0.00 | 0.00 | 0.00 | 76 | 1013.2 |
| 20260505153048 | 55 | 185 | 0.9 | 1.7 | 0.00 | 0.00 | 0.00 | 76 | 1012.7 |
| 20260505152529 | 55 | 185 | 0.0 | 1.7 | 0.00 | 0.00 | 0.00 | 79 | 1012.7 |
| 20260505152036 | 54 | 185 | 0.0 | 1.7 | 0.00 | 0.00 | 0.00 | 80 | 1012.7 |
| 20260505151542 | 54 | 185 | 0.0 | 1.7 | 0.00 | 0.00 | 0.00 | 82 | 1012.8 |
| 20260505151029 | 53 | 0 | 0.9 | 1.7 | 0.00 | 0.00 | 0.00 | 85 | 1012.8 |
| 20260505150530 | 52 | 185 | 0.0 | 1.7 | 0.00 | 0.00 | 0.00 | 87 | 1012.7 |
| 20260505140530 | 47 | 0 | 0.0 | 2.6 | 0.00 | 0.00 | 0.00 | 93 | 1012.3 |
| 20260505125030 | 46 | 122 | 1.7 | 2.6 | 0.00 | 0.00 | 0.00 | 92 | 1011.3 |
| 20260505124547 | 46 | 122 | 0.9 | 2.6 | 0.00 | 0.00 | 0.00 | 92 | 1011.3 |
| 20260505124029 | 46 | 122 | 1.7 | 2.6 | 0.00 | 0.00 | 0.00 | 92 | 1011.4 |
| 20260505123533 | 46 | 122 | 1.7 | 1.7 | 0.00 | 0.00 | 0.00 | 92 | 1011.4 |
| 20260505123056 | 46 | 122 | 0.9 | 1.7 | 0.00 | 0.00 | 0.00 | 92 | 1011.3 |
| 20260505122530 | 45 | 122 | 0.9 | 2.6 | 0.00 | 0.00 | 0.00 | 91 | 1011.4 |
| 20260505122030 | 45 | 122 | 0.9 | 2.6 | 0.00 | 0.00 | 0.00 | 91 | 1011.5 |
| 20260505121543 | 46 | 122 | 1.7 | 2.6 | 0.00 | 0.00 | 0.00 | 91 | 1011.4 |
| 20260505121030 | 46 | 93 | 0.9 | 1.7 | 0.00 | 0.00 | 0.00 | 91 | 1011.4 |
| 20260505120530 | 46 | 93 | 0.9 | 2.6 | 0.00 | 0.00 | 0.00 | 91 | 1011.5 |
| 20260505120052 | 46 | 93 | 1.7 | 3.5 | 0.00 | 0.00 | 0.00 | 91 | 1011.4 |
| 20260505115529 | 46 | 93 | 3.5 | 3.5 | 0.00 | 0.00 | 0.00 | 91 | 1011.4 |
| 20260505115029 | 46 | 93 | 2.6 | 2.6 | 0.00 | 0.00 | 0.00 | 91 | 1011.4 |
| 20260505114537 | 46 | 93 | 1.7 | 2.6 | 0.00 | 0.00 | 0.00 | 91 | 1011.4 |
| 20260505114028 | 46 | 303 | 0.0 | 1.7 | 0.00 | 0.00 | 0.00 | 90 | 1011.5 |
| 20260505113532 | 46 | 0 | 0.0 | 0.0 | 0.00 | 0.00 | 0.00 | 90 | 1011.4 |
| 20260505113049 | 46 | 0 | 0.0 | 1.7 | 0.00 | 0.00 | 0.00 | 90 | 1011.5 |
| 20260505112530 | 46 | 0 | 0.0 | 1.7 | 0.00 | 0.00 | 0.00 | 90 | 1011.4 |
| 20260505112033 | 47 | 303 | 0.0 | 1.7 | 0.00 | 0.00 | 0.00 | 90 | 1011.4 |
| 20260505111544 | 47 | 0 | 0.9 | 1.7 | 0.00 | 0.00 | 0.00 | 90 | 1011.4 |
| 20260505111033 | 47 | 303 | 0.0 | 1.7 | 0.00 | 0.00 | 0.00 | 90 | 1011.3 |
| 20260505110530 | 47 | 303 | 0.9 | 1.7 | 0.00 | 0.00 | 0.00 | 90 | 1011.4 |
| 20260505102029 | 48 | 0 | 0.0 | 0.0 | 0.00 | 0.00 | 0.00 | 89 | 1011.3 |
| 20260505101540 | 48 | 0 | 0.0 | 0.9 | 0.00 | 0.00 | 0.00 | 89 | 1011.3 |
| 20260505101034 | 48 | 0 | 0.0 | 0.9 | 0.00 | 0.00 | 0.00 | 89 | 1011.3 |
| 20260505100530 | 48 | 0 | 0.0 | 0.9 | 0.00 | 0.00 | 0.00 | 89 | 1011.3 |
| 20260505100042 | 48 | 303 | 0.9 | 0.9 | 0.00 | 0.00 | 0.00 | 89 | 1011.3 |
| 20260505095529 | 48 | 303 | 0.9 | 2.6 | 0.00 | 0.00 | 0.00 | 89 | 1011.3 |
| 20260505095029 | 49 | 302 | 0.9 | 2.6 | 0.00 | 0.00 | 0.00 | 88 | 1011.4 |
| 20260505094537 | 49 | 303 | 2.6 | 2.6 | 0.00 | 0.00 | 0.00 | 88 | 1011.4 |
| 20260505094029 | 49 | 303 | 0.9 | 2.6 | 0.00 | 0.00 | 0.00 | 87 | 1011.5 |
| 20260505093529 | 49 | 303 | 0.9 | 1.7 | 0.00 | 0.00 | 0.00 | 87 | 1011.4 |
| 20260505093045 | 49 | 303 | 1.7 | 1.7 | 0.00 | 0.00 | 0.00 | 87 | 1011.5 |
| 20260505092529 | 49 | 303 | 0.9 | 1.7 | 0.00 | 0.00 | 0.00 | 85 | 1011.4 |
| 20260505092030 | 49 | 303 | 0.0 | 1.7 | 0.00 | 0.00 | 0.00 | 85 | 1011.3 |
| 20260505091551 | 50 | 0 | 0.0 | 0.0 | 0.00 | 0.00 | 0.00 | 85 | 1011.2 |
| 20260505091030 | 50 | 0 | 0.0 | 0.0 | 0.00 | 0.00 | 0.00 | 85 | 1011.0 |
| 20260505090529 | 50 | 0 | 0.0 | 0.0 | 0.00 | 0.00 | 0.00 | 85 | 1011.1 |
| 20260505090045 | 50 | 0 | 0.0 | 0.0 | 0.00 | 0.00 | 0.00 | 85 | 1011.1 |
| 20260505085530 | 50 | 0 | 0.0 | 0.0 | 0.00 | 0.00 | 0.00 | 85 | 1011.2 |
| 20260505085030 | 50 | 0 | 0.0 | 0.0 | 0.00 | 0.00 | 0.00 | 85 | 1011.1 |
| 20260505084600 | 51 | 0 | 0.0 | 0.0 | 0.00 | 0.00 | 0.00 | 84 | 1011.1 |
| 20260505084029 | 51 | 0 | 0.0 | 0.0 | 0.00 | 0.00 | 0.00 | 84 | 1011.0 |
| 20260505083530 | 51 | 0 | 0.0 | 0.0 | 0.00 | 0.00 | 0.00 | 84 | 1011.0 |
| 20260505083057 | 51 | 0 | 0.0 | 0.0 | 0.00 | 0.00 | 0.00 | 83 | 1011.0 |
| 20260505082529 | 51 | 0 | 0.0 | 0.9 | 0.00 | 0.00 | 0.00 | 82 | 1010.9 |
| 20260505082029 | 52 | 0 | 0.0 | 0.9 | 0.00 | 0.00 | 0.00 | 81 | 1010.9 |
| 20260505081556 | 52 | 303 | 0.0 | 0.9 | 0.00 | 0.00 | 0.00 | 81 | 1011.0 |
| 20260505081030 | 52 | 303 | 0.9 | 1.7 | 0.00 | 0.00 | 0.00 | 79 | 1010.9 |
| 20260505080529 | 52 | 303 | 0.9 | 1.7 | 0.00 | 0.00 | 0.00 | 78 | 1010.9 |
| 20260505080058 | 52 | 303 | 0.9 | 1.7 | 0.00 | 0.00 | 0.00 | 78 | 1010.9 |
| 20260505075529 | 53 | 0 | 0.0 | 1.7 | 0.00 | 0.00 | 0.00 | 78 | 1010.8 |
| 20260505075030 | 53 | 0 | 0.0 | 1.7 | 0.00 | 0.00 | 0.00 | 78 | 1010.9 |
| 20260505074543 | 53 | 0 | 0.0 | 1.7 | 0.00 | 0.00 | 0.00 | 77 | 1010.9 |
| 20260505074030 | 53 | 303 | 1.7 | 1.7 | 0.00 | 0.00 | 0.00 | 77 | 1010.9 |
| 20260505073529 | 53 | 303 | 0.9 | 2.6 | 0.00 | 0.00 | 0.00 | 77 | 1010.9 |
| 20260505073052 | 54 | 303 | 0.9 | 2.6 | 0.00 | 0.00 | 0.00 | 76 | 1011.0 |
| 20260505072530 | 54 | 303 | 2.6 | 2.6 | 0.00 | 0.00 | 0.00 | 76 | 1011.0 |
| 20260505072029 | 54 | 303 | 1.7 | 2.6 | 0.00 | 0.00 | 0.00 | 75 | 1011.0 |
| 20260505071546 | 54 | 303 | 1.7 | 6.1 | 0.00 | 0.00 | 0.00 | 75 | 1011.0 |
| 20260505071029 | 55 | 303 | 2.6 | 6.1 | 0.00 | 0.00 | 0.00 | 75 | 1011.0 |
| 20260505070533 | 55 | 291 | 2.6 | 6.1 | 0.00 | 0.00 | 0.00 | 74 | 1011.1 |
| 20260505070044 | 55 | 291 | 1.7 | 6.1 | 0.00 | 0.00 | 0.00 | 74 | 1011.1 |
| 20260505065529 | 55 | 305 | 2.6 | 4.3 | 0.00 | 0.00 | 0.00 | 73 | 1011.1 |
| 20260505065029 | 56 | 305 | 3.5 | 4.3 | 0.00 | 0.00 | 0.00 | 75 | 1011.1 |
| 20260505064545 | 56 | 300 | 1.7 | 3.5 | 0.00 | 0.00 | 0.00 | 75 | 1011.0 |
| 20260505064033 | 56 | 342 | 0.9 | 3.5 | 0.00 | 0.00 | 0.00 | 72 | 1010.9 |
| 20260505063530 | 56 | 342 | 0.9 | 3.5 | 0.00 | 0.00 | 0.00 | 72 | 1011.0 |
| 20260505063046 | 57 | 342 | 2.6 | 3.5 | 0.00 | 0.00 | 0.00 | 73 | 1010.9 |
| 20260505062530 | 57 | 342 | 1.7 | 3.5 | 0.00 | 0.00 | 0.00 | 73 | 1010.8 |
| 20260505062030 | 57 | 342 | 2.6 | 3.5 | 0.00 | 0.00 | 0.00 | 71 | 1010.9 |
| 20260505061541 | 57 | 342 | 1.7 | 2.6 | 0.00 | 0.00 | 0.00 | 69 | 1010.8 |
| 20260505061029 | 57 | 342 | 1.7 | 4.3 | 0.00 | 0.00 | 0.00 | 69 | 1010.8 |
| 20260505060529 | 57 | 342 | 2.6 | 5.2 | 0.00 | 0.00 | 0.00 | 69 | 1011.0 |
| 20260505060056 | 57 | 342 | 3.5 | 5.2 | 0.00 | 0.00 | 0.00 | 68 | 1011.0 |
| 20260505055529 | 57 | 342 | 4.3 | 7.0 | 0.00 | 0.00 | 0.00 | 68 | 1011.1 |
| 20260505055031 | 57 | 336 | 4.3 | 7.0 | 0.00 | 0.00 | 0.00 | 68 | 1011.1 |
| 20260505054618 | 58 | 333 | 4.3 | 7.0 | 0.00 | 0.00 | 0.00 | 68 | 1011.0 |
| 20260505054032 | 57 | 355 | 3.5 | 8.7 | 0.00 | 0.00 | 0.00 | 68 | 1011.0 |
| 20260505053529 | 57 | 340 | 5.2 | 9.6 | 0.00 | 0.00 | 0.00 | 68 | 1010.8 |
| 20260505053044 | 57 | 329 | 7.0 | 9.6 | 0.00 | 0.00 | 0.00 | 69 | 1010.8 |
| 20260505052530 | 57 | 338 | 7.8 | 8.7 | 0.00 | 0.00 | 0.00 | 69 | 1010.9 |
| 20260505052032 | 58 | 323 | 7.0 | 8.7 | 0.00 | 0.00 | 0.00 | 70 | 1011.0 |
| 20260505051542 | 58 | 309 | 4.3 | 5.2 | 0.00 | 0.00 | 0.00 | 67 | 1010.9 |
| 20260505051030 | 59 | 314 | 3.5 | 4.3 | 0.00 | 0.00 | 0.00 | 64 | 1010.9 |
| 20260505050529 | 60 | 314 | 3.5 | 4.3 | 0.00 | 0.00 | 0.00 | 63 | 1010.9 |
| 20260505041553 | 63 | 355 | 4.3 | 5.2 | 0.00 | 0.00 | 0.00 | 57 | 1010.8 |
| 20260505041030 | 64 | 337 | 3.5 | 4.3 | 0.00 | 0.00 | 0.00 | 56 | 1010.8 |
| 20260505040531 | 64 | 335 | 3.5 | 4.3 | 0.00 | 0.00 | 0.00 | 56 | 1010.9 |
| 20260505040049 | 65 | 335 | 2.6 | 4.3 | 0.00 | 0.00 | 0.00 | 55 | 1010.9 |
| 20260505035532 | 65 | 335 | 2.6 | 4.3 | 0.00 | 0.00 | 0.00 | 56 | 1010.9 |
| 20260505035029 | 66 | 327 | 2.6 | 4.3 | 0.00 | 0.00 | 0.00 | 55 | 1010.9 |
| 20260505034541 | 66 | 325 | 2.6 | 3.5 | 0.00 | 0.00 | 0.00 | 54 | 1010.9 |
| 20260505034030 | 66 | 325 | 2.6 | 4.3 | 0.00 | 0.00 | 0.00 | 53 | 1010.9 |
| 20260505033530 | 67 | 325 | 2.6 | 5.2 | 0.00 | 0.00 | 0.00 | 53 | 1011.0 |
| 20260505033041 | 67 | 325 | 3.5 | 7.0 | 0.00 | 0.00 | 0.00 | 52 | 1011.0 |
| 20260505032529 | 67 | 331 | 3.5 | 7.0 | 0.00 | 0.00 | 0.00 | 51 | 1011.0 |
| 20260505032032 | 68 | 306 | 3.5 | 6.1 | 0.00 | 0.00 | 0.00 | 50 | 1011.1 |
| 20260505031539 | 69 | 304 | 4.3 | 6.1 | 0.00 | 0.00 | 0.00 | 49 | 1011.1 |
| 20260505031029 | 69 | 284 | 3.5 | 6.1 | 0.00 | 0.00 | 0.00 | 48 | 1011.1 |
| 20260505030532 | 69 | 296 | 2.6 | 7.0 | 0.00 | 0.00 | 0.00 | 49 | 1011.1 |
| 20260505030046 | 69 | 321 | 3.5 | 7.0 | 0.00 | 0.00 | 0.00 | 47 | 1011.1 |
| 20260505025529 | 69 | 294 | 3.5 | 7.8 | 0.00 | 0.00 | 0.00 | 48 | 1011.1 |
| 20260505025028 | 70 | 301 | 5.2 | 7.8 | 0.00 | 0.00 | 0.00 | 47 | 1011.1 |